Williamsport, PA

9:27 AM EDT on September 15, 2019 (GMT -0400)
Williamsport Rgnl

Weather History for KIPT - August, 2019

Change the Weather History Date:

Sunday, August 18, 2019

  Actual Average Record
Temperature  
Mean Temperature 78 °F 71 °F  
Max Temperature 90 °F 82 °F 96 °F (1995)
Min Temperature 65 °F 61 °F 43 °F (1941)
Degree Days  
Heating Degree Days 0 0  
Month to date heating degree days 0 0  
Since 1 June heating degree days 29 41  
Since 1 July heating degree days 0 4  
Cooling Degree Days 13 6  
Month to date cooling degree days 163 130  
Year to date cooling degree days 699 563  
Since 1 June cooling degree days 647 520  
Growing Degree Days 27 (Base 50)    
Moisture  
Dew Point 65 °F    
Average Humidity 72    
Maximum Humidity 93    
Minimum Humidity 50    
Precipitation  
Precipitation 0.75 in 0.12 in 3.95 in (1938)
Month to date precipitation 2.20 2.28  
Year to date precipitation 35.02 25.45  
Sea Level Pressure  
Sea Level Pressure 29.99 in    
Wind  
Wind Speed 4 mph (SSE)    
Max Wind Speed 22 mph    
Max Gust Speed 30 mph    
Visibility 8 miles    
Events Rain , Hail , Thunderstorm    
T = Trace of Precipitation, MM = Missing Value Source: NWS Daily Summary

Daily Weather History Graph

Daily Weather History Graph

Search for Another Location

Airport or City:

Astronomy

Aug. 18, 2019 Rise Set
Actual Time 6:19 AM EDT 8:02 PM EDT
Civil Twilight 5:50 AM EDT 8:31 PM EDT
Nautical Twilight 5:14 AM EDT 9:07 PM EDT
Astronomical Twilight 4:36 AM EDT 9:45 PM EDT
Moon 9:54 PM EDT (8/18) 9:04 AM EDT (8/18)
Length of Visible Light 14h 41m
Length of Day
13h 42m
Waning Gibbous, 91% of the Moon is Illuminated
Aug 18
Waning Gibbous
Aug 23
Last Quarter
Aug 30
New
Sep 5
First Quarter
Sep 14
Full

Hourly Weather History & Observations

Time (EDT) Temp. Heat Index Dew Point Humidity Pressure Visibility Wind Dir Wind Speed Gust Speed Precip Events Conditions
12:54 AM 66.0 °F - 64.0 °F 93% 29.98 in 10.0 mi Calm Calm - N/A   Clear
1:54 AM 64.9 °F - 63.0 °F 93% 29.98 in 10.0 mi Calm Calm - N/A   Clear
2:30 AM 66.0 °F - 63.0 °F 90% 29.99 in 10.0 mi Calm Calm - N/A   Scattered Clouds
2:39 AM 66.0 °F - 63.0 °F 90% 29.99 in 10.0 mi Calm Calm - N/A   Mostly Cloudy
2:54 AM 66.0 °F - 63.0 °F 90% 29.98 in 10.0 mi Calm Calm - N/A   Scattered Clouds
3:20 AM 64.9 °F - 63.0 °F 93% 30.00 in 10.0 mi Calm Calm - N/A   Mostly Cloudy
3:54 AM 66.0 °F - 63.0 °F 90% 29.99 in 10.0 mi Calm Calm - N/A   Overcast
4:54 AM 66.0 °F - 63.0 °F 90% 29.99 in 10.0 mi Calm Calm - N/A   Overcast
5:54 AM 66.0 °F - 64.0 °F 93% 30.00 in 10.0 mi Calm Calm - N/A   Overcast
6:54 AM 66.0 °F - 63.0 °F 90% 30.01 in 10.0 mi Calm Calm - N/A   Overcast
7:13 AM 66.0 °F - 64.0 °F 93% 30.01 in 2.5 mi Calm Calm - N/A   Overcast
7:24 AM 66.0 °F - 64.0 °F 93% 30.02 in 6.0 mi Calm Calm - N/A   Overcast
7:54 AM 66.9 °F - 64.9 °F 93% 30.02 in 6.0 mi Calm Calm - N/A   Overcast
8:54 AM 68.0 °F - 64.9 °F 90% 30.03 in 9.0 mi Calm Calm - N/A   Overcast
9:20 AM 70.0 °F - 64.9 °F 84% 30.04 in 10.0 mi Variable 4.6 mph - N/A   Mostly Cloudy
9:27 AM 70.0 °F - 64.9 °F 84% 30.03 in 10.0 mi Variable 4.6 mph - N/A   Scattered Clouds
9:54 AM 72.0 °F - 64.9 °F 78% 30.01 in 10.0 mi Variable 4.6 mph - N/A   Clear
10:54 AM 78.1 °F - 66.9 °F 68% 30.01 in 10.0 mi Variable 3.5 mph - N/A   Partly Cloudy
11:54 AM 82.9 °F 85.8 °F 68.0 °F 60% 29.99 in 10.0 mi East 4.6 mph - N/A   Clear
12:54 PM 87.1 °F 91.3 °F 69.1 °F 55% 29.96 in 10.0 mi South 8.1 mph - N/A   Clear
1:54 PM 88.0 °F 92.1 °F 69.1 °F 53% 29.95 in 10.0 mi SSW 9.2 mph - N/A   Clear
2:54 PM 90.0 °F 93.6 °F 68.0 °F 48% 29.95 in 10.0 mi North - - N/A   Partly Cloudy
3:43 PM 88.0 °F 90.3 °F 66.0 °F 48% 29.97 in 10.0 mi WSW 11.5 mph 23.0 mph N/A Thunderstorm Scattered Clouds
3:54 PM 81.0 °F 81.6 °F 60.1 °F 49% 30.00 in 10.0 mi West 12.7 mph 29.9 mph N/A Thunderstorm Mostly Cloudy
3:56 PM 80.1 °F 80.9 °F 60.1 °F 50% 30.01 in 10.0 mi WSW 10.4 mph 24.2 mph 0.00 in Rain , Thunderstorm Light Thunderstorms and Rain
4:05 PM 73.0 °F - 63.0 °F 71% 30.03 in 1.0 mi East 11.5 mph - 0.09 in Rain , Hail , Thunderstorm Heavy Thunderstorms and Rain
4:14 PM 70.0 °F - 64.9 °F 84% 30.03 in 3.0 mi ESE 12.7 mph - 0.34 in Rain , Thunderstorm Light Thunderstorms and Rain
4:22 PM 70.0 °F - 66.9 °F 90% 30.04 in 3.0 mi SE 12.7 mph - 0.39 in Rain , Thunderstorm Thunderstorms and Rain
4:32 PM 69.1 °F - 66.9 °F 93% 30.05 in 2.0 mi South 11.5 mph - 0.50 in Rain , Thunderstorm Thunderstorms and Rain
4:39 PM 69.1 °F - 66.9 °F 93% 29.99 in 1.0 mi Variable 5.8 mph - 0.70 in Rain , Thunderstorm Thunderstorms and Rain
4:54 PM 70.0 °F - 64.9 °F 84% 29.97 in 3.0 mi East 10.4 mph - 0.75 in Thunderstorm Unknown
5:20 PM 71.1 °F - 66.0 °F 84% 29.98 in 10.0 mi ENE 9.2 mph - N/A   Mostly Cloudy
5:54 PM 70.0 °F - 66.0 °F 87% 29.97 in 10.0 mi ESE 4.6 mph - N/A   Mostly Cloudy
6:54 PM 70.0 °F - 66.9 °F 90% 29.96 in 10.0 mi West 3.5 mph - N/A   Clear
7:54 PM 69.1 °F - 66.9 °F 93% 29.98 in 10.0 mi SE 3.5 mph - N/A   Clear
8:54 PM 69.1 °F - 66.0 °F 90% 30.02 in 10.0 mi Calm Calm - N/A   Partly Cloudy
9:54 PM 68.0 °F - 64.9 °F 90% 29.97 in 10.0 mi SW 3.5 mph - N/A   Clear
10:54 PM 66.9 °F - 64.9 °F 93% 29.95 in 10.0 mi ESE 6.9 mph - N/A   Clear
11:54 PM 66.9 °F - 64.0 °F 90% 29.94 in 10.0 mi NW 5.8 mph - N/A   Clear